Volver al catálogo

AMC-8

GE-8

ActivoComunicacionesGEO
NORAD 26639·PAYLOAD·🇱🇺 Luxembourg

Lanzado Dec 20, 2000 desde Guiana Space Centre

Loading…

TLE

ActualizadoSource: Space-Track

Época: Sep 14, 2026, 13:54 UTC

1 26639U 00081B   26257.57978103 -.00000036  00000-0  00000-0 0  9997
2 26639   6.3437  71.4289 0004437 207.7736 306.5017  0.99151238 94072

Sigue AMC-8 en tiempo real con AllMySat

Download on the App Store